Volver al catálogo

STARLINK-11189

ActivoComunicacionesVLEO
NORAD 60188·PAYLOAD·🇺🇸 United States

Lanzado Jul 3, 2024 desde Cape Canaveral Space Force Station

Loading…

Próximos Pases (próximas 24 horas)

TLE

ActualizadoSource: CelesTrak SupGP

Época: Sep 14, 2026, 20:41 UTC

1 60188C 24124F   26257.86229167 -.00054066  00000+0 -44534-3 0  2571
2 60188  53.1570 309.0719 0001154  77.6759 178.5831 15.69737616    12

Sigue STARLINK-11189 en tiempo real con AllMySat

Download on the App Store